29.03.2024;12:54;4,39
29.03.2024;12:39;4,40
29.03.2024;12:24;4,40
29.03.2024;12:09;4,40
29.03.2024;11:54;4,40
29.03.2024;11:39;4,40
29.03.2024;11:24;4,40
29.03.2024;11:09;4,40
29.03.2024;10:54;4,40
29.03.2024;10:39;4,40
29.03.2024;10:24;4,40
29.03.2024;10:09;4,40
29.03.2024;09:54;4,40
29.03.2024;09:39;4,40
29.03.2024;09:24;4,40
29.03.2024;09:09;4,39
29.03.2024;08:54;4,40
29.03.2024;08:39;4,40
29.03.2024;08:24;4,40
29.03.2024;08:09;4,40
29.03.2024;07:54;4,40
29.03.2024;07:39;4,40
29.03.2024;07:24;4,40
29.03.2024;07:09;4,40
29.03.2024;06:54;4,40
29.03.2024;06:39;4,40
29.03.2024;06:24;4,40
29.03.2024;06:09;4,40
29.03.2024;05:54;4,40
29.03.2024;05:39;4,40
29.03.2024;05:24;4,40
29.03.2024;05:09;4,40
29.03.2024;04:54;4,40
29.03.2024;04:39;4,40
29.03.2024;04:24;4,40
29.03.2024;04:09;4,40
29.03.2024;03:54;4,40
29.03.2024;03:39;4,40
29.03.2024;03:24;4,40
29.03.2024;03:09;4,40
29.03.2024;02:54;4,40
29.03.2024;02:39;4,40
29.03.2024;02:24;4,40
29.03.2024;02:09;4,40
29.03.2024;01:54;4,40
29.03.2024;01:39;4,40
29.03.2024;01:24;4,40
29.03.2024;01:09;4,40
29.03.2024;00:54;4,40
29.03.2024;00:39;4,40
29.03.2024;00:24;4,40
29.03.2024;00:09;4,40
28.03.2024;23:54;4,40
28.03.2024;23:39;4,40
28.03.2024;23:24;4,40
28.03.2024;23:09;4,40
28.03.2024;22:54;4,40
28.03.2024;22:39;4,40
28.03.2024;22:24;4,40
28.03.2024;22:09;4,40
28.03.2024;21:54;4,40
28.03.2024;21:39;4,40
28.03.2024;21:24;4,40
28.03.2024;21:09;4,40
28.03.2024;20:53;4,40
28.03.2024;20:38;4,40
28.03.2024;20:23;4,40
28.03.2024;20:08;4,40
28.03.2024;19:53;4,40
28.03.2024;19:38;4,40
28.03.2024;19:23;4,40
28.03.2024;19:08;4,40
28.03.2024;18:53;4,40
28.03.2024;18:38;4,40
28.03.2024;18:23;4,40
28.03.2024;18:08;4,39
28.03.2024;17:53;4,40
28.03.2024;17:38;4,40
28.03.2024;17:23;4,40
28.03.2024;17:08;4,40
28.03.2024;16:53;4,40
28.03.2024;16:38;4,40
28.03.2024;16:23;4,40
28.03.2024;16:08;4,40
28.03.2024;15:53;4,40
28.03.2024;15:38;4,40
28.03.2024;15:23;4,40
28.03.2024;15:08;4,40
28.03.2024;14:53;4,40
28.03.2024;14:38;4,39
28.03.2024;14:23;4,39
28.03.2024;14:08;4,40
28.03.2024;13:53;4,40
28.03.2024;13:38;4,40
28.03.2024;13:23;4,40
28.03.2024;13:08;4,40
28.03.2024;12:53;4,40
28.03.2024;12:38;4,40
28.03.2024;12:23;4,40
28.03.2024;12:08;4,40
28.03.2024;11:53;4,40
28.03.2024;11:38;4,40
28.03.2024;11:23;4,40
28.03.2024;11:08;4,40
28.03.2024;10:53;4,40
28.03.2024;10:38;4,40
28.03.2024;10:23;4,40
28.03.2024;10:08;4,40
28.03.2024;09:53;4,40
28.03.2024;09:38;4,39
28.03.2024;09:23;4,40
28.03.2024;09:08;4,40
28.03.2024;08:53;4,40
28.03.2024;08:38;4,40
28.03.2024;08:23;4,40
28.03.2024;08:08;4,40
28.03.2024;07:53;4,40
28.03.2024;07:38;4,40
28.03.2024;07:23;4,40
28.03.2024;07:08;4,40
28.03.2024;06:53;4,40
28.03.2024;06:38;4,40
28.03.2024;06:23;4,40
28.03.2024;06:08;4,40
28.03.2024;05:53;4,40
28.03.2024;05:38;4,40
28.03.2024;05:23;4,40
28.03.2024;05:08;4,40
28.03.2024;04:53;4,40
28.03.2024;04:38;4,40
28.03.2024;04:23;4,40
28.03.2024;04:07;4,40
28.03.2024;03:52;4,40
28.03.2024;03:37;4,40
28.03.2024;03:22;4,40
28.03.2024;03:07;4,40
28.03.2024;02:52;4,40
28.03.2024;02:37;4,40
28.03.2024;02:22;4,40
28.03.2024;02:07;4,40
28.03.2024;01:52;4,40
28.03.2024;01:37;4,40
28.03.2024;01:22;4,40
28.03.2024;01:07;4,40
28.03.2024;00:52;4,40
28.03.2024;00:37;4,40
28.03.2024;00:22;4,40
28.03.2024;00:07;4,40
27.03.2024;23:52;4,40
27.03.2024;23:37;4,40
27.03.2024;23:22;4,40
27.03.2024;23:07;4,40
27.03.2024;22:52;4,40
27.03.2024;22:37;4,40
27.03.2024;22:22;4,40
27.03.2024;22:07;4,40
27.03.2024;21:52;4,40
27.03.2024;21:37;4,40
27.03.2024;21:22;4,40
27.03.2024;21:07;4,40
27.03.2024;20:52;4,40
27.03.2024;20:37;4,40
27.03.2024;20:22;4,40
27.03.2024;20:07;4,40
27.03.2024;19:52;4,40
27.03.2024;19:37;4,40
27.03.2024;19:22;4,40
27.03.2024;19:07;4,40
27.03.2024;18:52;4,40
27.03.2024;18:37;4,40
27.03.2024;18:22;4,40
27.03.2024;18:07;4,40
27.03.2024;17:52;4,40
27.03.2024;17:37;4,40
27.03.2024;17:22;4,40
27.03.2024;17:07;4,40
27.03.2024;16:52;4,40
27.03.2024;16:37;4,40
27.03.2024;16:22;4,40
27.03.2024;16:07;4,40
27.03.2024;15:52;4,40
27.03.2024;15:37;4,40
27.03.2024;15:22;4,40
27.03.2024;15:07;4,40
27.03.2024;14:52;4,40
27.03.2024;14:37;4,40
27.03.2024;14:22;4,40
27.03.2024;14:07;4,40
27.03.2024;13:52;4,40
27.03.2024;13:37;4,40
27.03.2024;13:22;4,40
27.03.2024;13:07;4,40
27.03.2024;12:52;4,40
27.03.2024;12:37;4,40
27.03.2024;12:22;4,40
27.03.2024;12:07;4,40
27.03.2024;11:52;4,40
27.03.2024;11:36;4,40
27.03.2024;11:21;4,40
27.03.2024;11:06;4,40
27.03.2024;10:51;4,40
27.03.2024;10:36;4,40
27.03.2024;10:21;4,40
27.03.2024;10:06;4,41
27.03.2024;09:51;4,40
27.03.2024;09:36;4,40
27.03.2024;09:21;4,40
27.03.2024;09:06;4,40
27.03.2024;08:51;4,40
27.03.2024;08:36;4,40
27.03.2024;08:21;4,40
27.03.2024;08:06;4,40
27.03.2024;07:51;4,40
27.03.2024;07:36;4,40
27.03.2024;07:21;4,40
27.03.2024;07:06;4,40
27.03.2024;06:51;4,40
27.03.2024;06:36;4,40
27.03.2024;06:21;4,40
27.03.2024;06:06;4,40
27.03.2024;05:51;4,40
27.03.2024;05:36;4,40
27.03.2024;05:21;4,40
27.03.2024;05:06;4,40
27.03.2024;04:51;4,41
27.03.2024;04:36;4,40
27.03.2024;04:21;4,40
27.03.2024;04:06;4,40
27.03.2024;03:51;4,40
27.03.2024;03:36;4,40
27.03.2024;03:21;4,40
27.03.2024;03:06;4,41
27.03.2024;02:51;4,40
27.03.2024;02:36;4,40
27.03.2024;02:21;4,40
27.03.2024;02:06;4,40
27.03.2024;01:51;4,40
27.03.2024;01:36;4,40
27.03.2024;01:21;4,41
27.03.2024;01:06;4,40
27.03.2024;00:51;4,40
27.03.2024;00:36;4,40
27.03.2024;00:21;4,40
27.03.2024;00:06;4,40
26.03.2024;23:51;4,41
26.03.2024;23:36;4,40
26.03.2024;23:21;4,40
26.03.2024;23:06;4,40
26.03.2024;22:51;4,41
26.03.2024;22:36;4,40
26.03.2024;22:21;4,40
26.03.2024;22:06;4,41
26.03.2024;21:51;4,40
26.03.2024;21:36;4,40
26.03.2024;21:21;4,40
26.03.2024;21:06;4,41
26.03.2024;20:51;4,40
26.03.2024;20:36;4,40
26.03.2024;20:21;4,41
26.03.2024;20:06;4,40
26.03.2024;19:51;4,40
26.03.2024;19:36;4,40
26.03.2024;19:21;4,40
26.03.2024;19:05;4,40
26.03.2024;18:50;4,40
26.03.2024;18:35;4,41
26.03.2024;18:20;4,40
26.03.2024;18:05;4,40
26.03.2024;17:50;4,40
26.03.2024;17:35;4,40
26.03.2024;17:20;4,40
26.03.2024;17:05;4,40
26.03.2024;16:50;4,40
26.03.2024;16:35;4,40
26.03.2024;16:20;4,40
26.03.2024;16:05;4,40
26.03.2024;15:50;4,40
26.03.2024;15:35;4,40
26.03.2024;15:20;4,40
26.03.2024;15:05;4,41
26.03.2024;14:53;4,41
26.03.2024;14:35;4,40
26.03.2024;14:20;4,40
26.03.2024;14:05;4,40
26.03.2024;13:50;4,40
26.03.2024;13:35;4,41
26.03.2024;13:20;4,40
26.03.2024;13:05;4,40
26.03.2024;12:50;4,40
26.03.2024;12:35;4,40
26.03.2024;12:20;4,40
26.03.2024;12:05;4,40
26.03.2024;11:50;4,40
26.03.2024;11:35;4,40
26.03.2024;11:20;4,40
26.03.2024;11:05;4,40
26.03.2024;10:50;4,40
26.03.2024;10:35;4,41
26.03.2024;10:20;4,40
26.03.2024;10:05;4,41
26.03.2024;09:50;4,40
26.03.2024;09:35;4,40
26.03.2024;09:20;4,40
26.03.2024;09:05;4,40
26.03.2024;08:50;4,40
26.03.2024;08:35;4,41
26.03.2024;08:20;4,40
26.03.2024;08:05;4,40
26.03.2024;07:50;4,40
26.03.2024;07:35;4,40
26.03.2024;07:20;4,40
26.03.2024;07:05;4,40
26.03.2024;06:50;4,41
26.03.2024;06:35;4,40
26.03.2024;06:20;4,40
26.03.2024;06:05;4,40
26.03.2024;05:50;4,40
26.03.2024;05:35;4,40
26.03.2024;05:20;4,41
26.03.2024;05:05;4,41
26.03.2024;04:50;4,40
26.03.2024;04:35;4,40
26.03.2024;04:20;4,40
26.03.2024;04:05;4,40
26.03.2024;03:50;4,41
26.03.2024;03:35;4,41
26.03.2024;03:20;4,41
26.03.2024;03:05;4,40
26.03.2024;02:50;4,41
26.03.2024;02:35;4,40
26.03.2024;02:19;4,41
26.03.2024;02:04;4,41
26.03.2024;01:49;4,41
26.03.2024;01:34;4,41
26.03.2024;01:19;4,41
26.03.2024;01:04;4,41
26.03.2024;00:49;4,40
26.03.2024;00:34;4,41
26.03.2024;00:19;4,41
26.03.2024;00:04;4,41
25.03.2024;23:49;4,41
25.03.2024;23:34;4,40
25.03.2024;23:19;4,41
25.03.2024;23:04;4,41
25.03.2024;22:49;4,41
25.03.2024;22:34;4,41
25.03.2024;22:19;4,41
25.03.2024;22:04;4,41
25.03.2024;21:49;4,41
25.03.2024;21:34;4,41
25.03.2024;21:19;4,41
25.03.2024;21:04;4,41
25.03.2024;20:49;4,41
25.03.2024;20:34;4,41
25.03.2024;20:19;4,41
25.03.2024;20:04;4,41
25.03.2024;19:49;4,41
25.03.2024;19:34;4,41
25.03.2024;19:19;4,41
25.03.2024;19:04;4,41
25.03.2024;18:49;4,41
25.03.2024;18:34;4,41
25.03.2024;18:19;4,41
25.03.2024;18:04;4,41
25.03.2024;17:49;4,41
25.03.2024;17:34;4,41
25.03.2024;17:19;4,41
25.03.2024;17:04;4,41
25.03.2024;16:49;4,41
25.03.2024;16:34;4,41
25.03.2024;16:19;4,41
25.03.2024;16:04;4,41
25.03.2024;15:49;4,41
25.03.2024;15:34;4,41
25.03.2024;15:19;4,41
25.03.2024;15:04;4,41
25.03.2024;14:49;4,41
25.03.2024;14:34;4,41
25.03.2024;14:19;4,41
25.03.2024;14:04;4,41
25.03.2024;13:49;4,41
25.03.2024;13:34;4,41
25.03.2024;13:19;4,41
25.03.2024;13:04;4,41
25.03.2024;12:49;4,41
25.03.2024;12:34;4,41
25.03.2024;12:19;4,41
25.03.2024;12:04;4,41
25.03.2024;11:49;4,41
25.03.2024;11:34;4,41
25.03.2024;11:19;4,41
25.03.2024;11:04;4,41
25.03.2024;10:49;4,41
25.03.2024;10:34;4,41
25.03.2024;10:19;4,41
25.03.2024;10:04;4,41
25.03.2024;09:48;4,41
25.03.2024;09:33;4,41
25.03.2024;09:18;4,41
25.03.2024;09:03;4,41
25.03.2024;08:48;4,41
25.03.2024;08:33;4,41
25.03.2024;08:18;4,41
25.03.2024;08:03;4,41
25.03.2024;07:48;4,41
25.03.2024;07:33;4,41
25.03.2024;07:18;4,41
25.03.2024;07:03;4,41
25.03.2024;06:48;4,41
25.03.2024;06:33;4,41
25.03.2024;06:18;4,41
25.03.2024;06:03;4,41
25.03.2024;05:48;4,41
25.03.2024;05:33;4,41
25.03.2024;05:18;4,41
25.03.2024;05:03;4,41
25.03.2024;04:48;4,41
25.03.2024;04:33;4,41
25.03.2024;04:18;4,41
25.03.2024;04:03;4,41
25.03.2024;03:48;4,41
25.03.2024;03:33;4,41
25.03.2024;03:18;4,41
25.03.2024;03:03;4,41
25.03.2024;02:48;4,41
25.03.2024;02:33;4,41
25.03.2024;02:18;4,41
25.03.2024;02:03;4,41
25.03.2024;01:48;4,42
25.03.2024;01:33;4,41
25.03.2024;01:18;4,41
25.03.2024;01:03;4,41
25.03.2024;00:48;4,41
25.03.2024;00:33;4,41
25.03.2024;00:18;4,41
25.03.2024;00:03;4,41
24.03.2024;23:48;4,41
24.03.2024;23:33;4,41
24.03.2024;23:18;4,41
24.03.2024;23:03;4,41
24.03.2024;22:48;4,41
24.03.2024;22:33;4,41
24.03.2024;22:18;4,42
24.03.2024;22:03;4,41
24.03.2024;21:48;4,41
24.03.2024;21:33;4,41
24.03.2024;21:18;4,41
24.03.2024;21:03;4,42
24.03.2024;20:48;4,41
24.03.2024;20:33;4,41
24.03.2024;20:18;4,41
24.03.2024;20:03;4,41
24.03.2024;19:48;4,41
24.03.2024;19:33;4,41
24.03.2024;19:18;4,42
24.03.2024;19:03;4,42
24.03.2024;18:48;4,41
24.03.2024;18:33;4,41
24.03.2024;18:18;4,41
24.03.2024;18:03;4,41
24.03.2024;17:48;4,41
24.03.2024;17:33;4,41
24.03.2024;17:17;4,42
24.03.2024;17:02;4,41
24.03.2024;16:47;4,41
24.03.2024;16:32;4,41
24.03.2024;16:17;4,41
24.03.2024;16:02;4,41
24.03.2024;15:47;4,41
24.03.2024;15:32;4,42
24.03.2024;15:17;4,42
24.03.2024;15:02;4,41
24.03.2024;14:47;4,42
24.03.2024;14:32;4,41
24.03.2024;14:17;4,41
24.03.2024;14:02;4,41
24.03.2024;13:47;4,42
24.03.2024;13:32;4,41
24.03.2024;13:17;4,42
24.03.2024;13:02;4,41
24.03.2024;12:47;4,42
24.03.2024;12:32;4,41
24.03.2024;12:17;4,41
24.03.2024;12:02;4,42
24.03.2024;11:47;4,42
24.03.2024;11:32;4,41
24.03.2024;11:17;4,41
24.03.2024;11:02;4,41
24.03.2024;10:47;4,41
24.03.2024;10:32;4,42
24.03.2024;10:17;4,42
24.03.2024;10:02;4,41
24.03.2024;09:47;4,42
24.03.2024;09:32;4,41
24.03.2024;09:17;4,42
24.03.2024;09:02;4,41
24.03.2024;08:47;4,42
24.03.2024;08:32;4,41
24.03.2024;08:17;4,42
24.03.2024;08:02;4,41
24.03.2024;07:47;4,42
24.03.2024;07:32;4,42
24.03.2024;07:17;4,42
24.03.2024;07:02;4,42
24.03.2024;06:47;4,41
24.03.2024;06:32;4,41
24.03.2024;06:17;4,41
24.03.2024;06:02;4,42
24.03.2024;05:47;4,42
24.03.2024;05:32;4,42
24.03.2024;05:17;4,42
24.03.2024;05:02;4,41
24.03.2024;04:47;4,42
24.03.2024;04:32;4,41
24.03.2024;04:17;4,42
24.03.2024;04:02;4,42
24.03.2024;03:47;4,42
24.03.2024;03:32;4,42
24.03.2024;03:17;4,42
24.03.2024;03:02;4,42
24.03.2024;02:47;4,42
24.03.2024;02:32;4,41
24.03.2024;02:17;4,42
24.03.2024;02:02;4,42
24.03.2024;01:47;4,42
24.03.2024;01:32;4,42
24.03.2024;01:17;4,42
24.03.2024;01:02;4,42
24.03.2024;00:46;4,42
24.03.2024;00:31;4,42
24.03.2024;00:16;4,42
24.03.2024;00:01;4,42
23.03.2024;23:46;4,41
23.03.2024;23:31;4,42
23.03.2024;23:16;4,42
23.03.2024;23:01;4,42
23.03.2024;22:46;4,42
23.03.2024;22:31;4,42
23.03.2024;22:16;4,42
23.03.2024;22:01;4,42
23.03.2024;21:46;4,42
23.03.2024;21:31;4,42
23.03.2024;21:16;4,42
23.03.2024;21:01;4,42
23.03.2024;20:46;4,42
23.03.2024;20:31;4,42
23.03.2024;20:16;4,42
23.03.2024;20:01;4,42
23.03.2024;19:46;4,42
23.03.2024;19:31;4,42
23.03.2024;19:16;4,42
23.03.2024;19:01;4,42
23.03.2024;18:46;4,42
23.03.2024;18:31;4,42
23.03.2024;18:16;4,42
23.03.2024;18:01;4,42
23.03.2024;17:46;4,42
23.03.2024;17:31;4,42
23.03.2024;17:16;4,42
23.03.2024;17:01;4,42
23.03.2024;16:46;4,42
23.03.2024;16:31;4,42
23.03.2024;16:16;4,42
23.03.2024;16:01;4,42
23.03.2024;15:46;4,42
23.03.2024;15:31;4,42
23.03.2024;15:16;4,42
23.03.2024;15:01;4,42
23.03.2024;14:46;4,42
23.03.2024;14:31;4,42
23.03.2024;14:16;4,42
23.03.2024;14:01;4,42
23.03.2024;13:46;4,42
23.03.2024;13:31;4,42
23.03.2024;13:16;4,42
23.03.2024;13:01;4,42
23.03.2024;12:46;4,42
23.03.2024;12:31;4,42
23.03.2024;12:16;4,42
23.03.2024;12:01;4,42
23.03.2024;11:46;4,42
23.03.2024;11:31;4,42
23.03.2024;11:16;4,42
23.03.2024;11:01;4,42
23.03.2024;10:46;4,42
23.03.2024;10:31;4,42
23.03.2024;10:16;4,42
23.03.2024;10:01;4,42
23.03.2024;09:46;4,42
23.03.2024;09:31;4,42
23.03.2024;09:16;4,42
23.03.2024;09:01;4,42
23.03.2024;08:46;4,42
23.03.2024;08:31;4,42
23.03.2024;08:16;4,42
23.03.2024;08:00;4,42
23.03.2024;07:45;4,42
23.03.2024;07:30;4,42
23.03.2024;07:15;4,42
23.03.2024;07:00;4,42
23.03.2024;06:45;4,42
23.03.2024;06:30;4,42
23.03.2024;06:15;4,42
23.03.2024;06:00;4,42
23.03.2024;05:45;4,42
23.03.2024;05:30;4,43
23.03.2024;05:15;4,42
23.03.2024;05:00;4,42
23.03.2024;04:45;4,42
23.03.2024;04:30;4,42
23.03.2024;04:15;4,42
23.03.2024;04:00;4,42
23.03.2024;03:45;4,42
23.03.2024;03:30;4,42
23.03.2024;03:15;4,42
23.03.2024;03:00;4,42
23.03.2024;02:45;4,42
23.03.2024;02:30;4,42
23.03.2024;02:15;4,42
23.03.2024;02:00;4,43
23.03.2024;01:45;4,42
23.03.2024;01:30;4,42
23.03.2024;01:15;4,42
23.03.2024;01:00;4,42
23.03.2024;00:45;4,42
23.03.2024;00:30;4,42
23.03.2024;00:15;4,43
23.03.2024;00:00;4,42
22.03.2024;23:45;4,42
22.03.2024;23:30;4,42
22.03.2024;23:15;4,43
22.03.2024;23:00;4,43
22.03.2024;22:45;4,42
22.03.2024;22:30;4,43
22.03.2024;22:15;4,42
22.03.2024;22:00;4,43
22.03.2024;21:45;4,42
22.03.2024;21:30;4,42
22.03.2024;21:15;4,43
22.03.2024;21:00;4,43
22.03.2024;20:45;4,43
22.03.2024;20:30;4,42
22.03.2024;20:15;4,42
22.03.2024;20:00;4,43
22.03.2024;19:45;4,42
22.03.2024;19:30;4,43
22.03.2024;19:15;4,43
22.03.2024;19:00;4,43
22.03.2024;18:45;4,43
22.03.2024;18:30;4,43
22.03.2024;18:15;4,43
22.03.2024;18:00;4,43
22.03.2024;17:45;4,43
22.03.2024;17:30;4,43
22.03.2024;17:15;4,43
22.03.2024;17:00;4,43
22.03.2024;16:45;4,43
22.03.2024;16:30;4,43
22.03.2024;16:15;4,43
22.03.2024;16:00;4,43
22.03.2024;15:45;4,43
22.03.2024;15:30;4,43
22.03.2024;15:14;4,43
22.03.2024;14:59;4,43
22.03.2024;14:44;4,43
22.03.2024;14:29;4,43
22.03.2024;14:14;4,43
22.03.2024;13:59;4,43
22.03.2024;13:44;4,43
22.03.2024;13:29;4,43
22.03.2024;13:14;4,43
22.03.2024;12:59;4,43
22.03.2024;12:44;4,43
22.03.2024;12:29;4,43
22.03.2024;12:14;4,43
22.03.2024;11:59;4,43
22.03.2024;11:44;4,43
22.03.2024;11:29;4,43
22.03.2024;11:14;4,43
22.03.2024;10:59;4,43
22.03.2024;10:44;4,43
22.03.2024;10:29;4,43
22.03.2024;10:14;4,43
22.03.2024;09:59;4,43
22.03.2024;09:44;4,43
22.03.2024;09:29;4,43
22.03.2024;09:14;4,43
22.03.2024;08:59;4,43
22.03.2024;08:44;4,43
22.03.2024;08:29;4,43
22.03.2024;08:14;4,43
22.03.2024;07:59;4,43
22.03.2024;07:44;4,43
22.03.2024;07:29;4,43
22.03.2024;07:14;4,43
22.03.2024;06:59;4,43
22.03.2024;06:44;4,43
22.03.2024;06:29;4,43
22.03.2024;06:14;4,43
22.03.2024;05:59;4,43
22.03.2024;05:44;4,43
22.03.2024;05:29;4,43
22.03.2024;05:14;4,43
22.03.2024;04:59;4,43
22.03.2024;04:44;4,43
22.03.2024;04:29;4,43
22.03.2024;04:14;4,43
22.03.2024;03:59;4,43
22.03.2024;03:44;4,43
22.03.2024;03:29;4,43
22.03.2024;03:14;4,43
22.03.2024;02:59;4,43
22.03.2024;02:44;4,43
22.03.2024;02:29;4,43
22.03.2024;02:14;4,43
22.03.2024;01:59;4,43
22.03.2024;01:44;4,43
22.03.2024;01:29;4,43
22.03.2024;01:14;4,43
22.03.2024;00:59;4,43
22.03.2024;00:44;4,43
22.03.2024;00:29;4,43
22.03.2024;00:14;4,43
21.03.2024;23:59;4,43
21.03.2024;23:44;4,43
21.03.2024;23:29;4,43
21.03.2024;23:14;4,43
21.03.2024;22:58;4,43
21.03.2024;22:43;4,44
21.03.2024;22:28;4,43
21.03.2024;22:13;4,43
21.03.2024;21:58;4,43
21.03.2024;21:43;4,44
21.03.2024;21:28;4,43
21.03.2024;21:13;4,43
21.03.2024;20:58;4,44
21.03.2024;20:43;4,43
21.03.2024;20:28;4,43
21.03.2024;20:13;4,43
21.03.2024;19:58;4,43
21.03.2024;19:43;4,44
21.03.2024;19:28;4,43
21.03.2024;19:13;4,44
21.03.2024;18:58;4,43
21.03.2024;18:43;4,43
21.03.2024;18:28;4,43
21.03.2024;18:13;4,44
21.03.2024;17:58;4,44
21.03.2024;17:43;4,43
21.03.2024;17:28;4,44
21.03.2024;17:13;4,43
21.03.2024;16:58;4,44
21.03.2024;16:43;4,43
21.03.2024;16:28;4,44
21.03.2024;16:13;4,43
21.03.2024;15:58;4,44
21.03.2024;15:43;4,44
21.03.2024;15:28;4,43
21.03.2024;15:13;4,44
21.03.2024;14:58;4,43
21.03.2024;14:43;4,43
21.03.2024;14:28;4,44
21.03.2024;14:13;4,44
21.03.2024;13:58;4,44
21.03.2024;13:43;4,43
21.03.2024;13:28;4,43
21.03.2024;13:13;4,44
21.03.2024;12:58;4,43
21.03.2024;12:43;4,44
21.03.2024;12:28;4,44
21.03.2024;12:13;4,44
21.03.2024;11:58;4,43
21.03.2024;11:43;4,43
21.03.2024;11:28;4,44
21.03.2024;11:13;4,44
21.03.2024;10:58;4,44
21.03.2024;10:43;4,44
21.03.2024;10:28;4,44
21.03.2024;10:13;4,44
21.03.2024;09:58;4,44
21.03.2024;09:43;4,44
21.03.2024;09:28;4,44
21.03.2024;09:13;4,44
21.03.2024;08:58;4,44
21.03.2024;08:43;4,44
21.03.2024;08:28;4,44
21.03.2024;08:13;4,44
21.03.2024;07:58;4,44
21.03.2024;07:43;4,44
21.03.2024;07:28;4,44
21.03.2024;07:13;4,44
21.03.2024;06:58;4,44
21.03.2024;06:43;4,44
21.03.2024;06:28;4,44
21.03.2024;06:12;4,44
21.03.2024;05:57;4,44
21.03.2024;05:42;4,44
21.03.2024;05:27;4,44
21.03.2024;05:12;4,44
21.03.2024;04:57;4,44
21.03.2024;04:42;4,44
21.03.2024;04:27;4,44
21.03.2024;04:12;4,44
21.03.2024;03:57;4,44
21.03.2024;03:42;4,44
21.03.2024;03:27;4,44
21.03.2024;03:12;4,44
21.03.2024;02:57;4,44
21.03.2024;02:42;4,44
21.03.2024;02:27;4,44
21.03.2024;02:12;4,44
21.03.2024;01:57;4,44
21.03.2024;01:42;4,44
21.03.2024;01:27;4,44
21.03.2024;01:12;4,44
21.03.2024;00:57;4,44
21.03.2024;00:42;4,44
21.03.2024;00:27;4,44
21.03.2024;00:12;4,44
20.03.2024;23:42;4,44
20.03.2024;23:27;4,44
20.03.2024;23:12;4,44
20.03.2024;22:57;4,44
20.03.2024;22:42;4,44
20.03.2024;22:27;4,44
20.03.2024;22:12;4,44
20.03.2024;21:57;4,44
20.03.2024;21:42;4,44
20.03.2024;21:27;4,44
20.03.2024;21:12;4,45
20.03.2024;20:57;4,44
20.03.2024;20:42;4,44
20.03.2024;20:27;4,44
20.03.2024;20:12;4,44
20.03.2024;19:57;4,44
20.03.2024;19:42;4,44
20.03.2024;19:27;4,44
20.03.2024;19:12;4,44
20.03.2024;18:57;4,44
20.03.2024;18:42;4,44
20.03.2024;18:27;4,44
20.03.2024;18:12;4,44
20.03.2024;17:57;4,44
20.03.2024;17:42;4,45
20.03.2024;17:27;4,44
20.03.2024;17:12;4,44
20.03.2024;16:57;4,44
20.03.2024;16:42;4,44
20.03.2024;16:27;4,44
20.03.2024;16:12;4,44
20.03.2024;15:57;4,45
20.03.2024;15:42;4,44
20.03.2024;15:27;4,44
20.03.2024;15:12;4,44
20.03.2024;14:57;4,44
20.03.2024;14:42;4,45
20.03.2024;14:27;4,45
20.03.2024;14:12;4,45
20.03.2024;13:57;4,44
20.03.2024;13:41;4,45
20.03.2024;13:26;4,44
20.03.2024;13:11;4,45
20.03.2024;12:56;4,45
20.03.2024;12:41;4,45
20.03.2024;12:26;4,45
20.03.2024;12:11;4,45
20.03.2024;11:56;4,45
20.03.2024;11:41;4,45
20.03.2024;11:26;4,45
20.03.2024;11:11;4,45
20.03.2024;10:56;4,45
20.03.2024;10:41;4,45
20.03.2024;10:26;4,45
20.03.2024;10:11;4,45
20.03.2024;09:56;4,45
20.03.2024;09:41;4,45
20.03.2024;09:26;4,45
20.03.2024;09:11;4,45
20.03.2024;08:56;4,45
20.03.2024;08:41;4,45
20.03.2024;08:26;4,45
20.03.2024;08:11;4,45
20.03.2024;07:56;4,45
20.03.2024;07:41;4,45
20.03.2024;07:26;4,45
20.03.2024;07:11;4,45
20.03.2024;06:56;4,45
20.03.2024;06:41;4,45
20.03.2024;06:26;4,45
20.03.2024;06:11;4,45
20.03.2024;05:56;4,45
20.03.2024;05:41;4,45
20.03.2024;05:26;4,45
20.03.2024;05:11;4,45
20.03.2024;04:56;4,45
20.03.2024;04:41;4,45
20.03.2024;04:26;4,45
20.03.2024;04:11;4,45
20.03.2024;03:56;4,46
20.03.2024;03:41;4,45
20.03.2024;03:26;4,45
20.03.2024;03:11;4,45
20.03.2024;02:56;4,45
20.03.2024;02:41;4,45
20.03.2024;02:26;4,45
20.03.2024;02:11;4,45
20.03.2024;01:56;4,45
20.03.2024;01:41;4,45
20.03.2024;01:26;4,45
20.03.2024;01:11;4,45
20.03.2024;00:56;4,45
20.03.2024;00:41;4,46
20.03.2024;00:26;4,45
20.03.2024;00:11;4,45
19.03.2024;23:56;4,45
19.03.2024;23:41;4,45
19.03.2024;23:26;4,45
19.03.2024;23:11;4,45
19.03.2024;22:56;4,46
19.03.2024;22:41;4,45
19.03.2024;22:26;4,45
19.03.2024;22:11;4,45
19.03.2024;21:56;4,45
19.03.2024;21:41;4,45
19.03.2024;21:26;4,45
19.03.2024;21:10;4,46
19.03.2024;20:56;4,45
19.03.2024;20:40;4,46
19.03.2024;20:25;4,45
19.03.2024;20:10;4,45
19.03.2024;19:55;4,45
19.03.2024;19:40;4,45
19.03.2024;19:25;4,46
19.03.2024;19:10;4,45
19.03.2024;18:55;4,45
19.03.2024;18:40;4,45
19.03.2024;18:25;4,45
19.03.2024;18:10;4,46
19.03.2024;17:55;4,45
19.03.2024;17:40;4,46
19.03.2024;17:25;4,46
19.03.2024;17:10;4,46
19.03.2024;16:55;4,45
19.03.2024;16:40;4,46
19.03.2024;16:25;4,46
19.03.2024;16:10;4,46
19.03.2024;15:55;4,46
19.03.2024;15:40;4,45
19.03.2024;15:25;4,45
19.03.2024;15:10;4,46
19.03.2024;14:55;4,46
19.03.2024;14:40;4,46
19.03.2024;14:25;4,46
19.03.2024;14:10;4,46
19.03.2024;13:55;4,45
19.03.2024;13:40;4,45
19.03.2024;13:25;4,46
19.03.2024;13:10;4,46
19.03.2024;12:55;4,46
19.03.2024;12:40;4,46
19.03.2024;12:25;4,46
19.03.2024;12:10;4,46
19.03.2024;11:55;4,46
19.03.2024;11:40;4,46
19.03.2024;11:25;4,46
19.03.2024;11:10;4,46
19.03.2024;10:55;4,46
19.03.2024;10:40;4,46
19.03.2024;10:25;4,46
19.03.2024;10:10;4,46
19.03.2024;09:55;4,46
19.03.2024;09:40;4,46
19.03.2024;09:25;4,46
19.03.2024;09:10;4,46
19.03.2024;08:55;4,46
19.03.2024;08:40;4,46
19.03.2024;08:25;4,46
19.03.2024;08:10;4,46
19.03.2024;07:55;4,46
19.03.2024;07:40;4,46
19.03.2024;07:25;4,46
19.03.2024;07:10;4,46
19.03.2024;06:55;4,46
19.03.2024;06:40;4,46
19.03.2024;06:25;4,46
19.03.2024;06:10;4,46
19.03.2024;05:55;4,46
19.03.2024;05:40;4,46
19.03.2024;05:25;4,46
19.03.2024;05:10;4,46
19.03.2024;04:55;4,46
19.03.2024;04:40;4,46
19.03.2024;04:24;4,46
19.03.2024;04:09;4,47
19.03.2024;03:54;4,46
19.03.2024;03:39;4,46
19.03.2024;03:24;4,46
19.03.2024;03:09;4,46
19.03.2024;02:54;4,46
19.03.2024;02:39;4,46
19.03.2024;02:24;4,47
19.03.2024;02:09;4,46
19.03.2024;01:54;4,47
19.03.2024;01:39;4,46
19.03.2024;01:24;4,46
19.03.2024;01:09;4,46
19.03.2024;00:54;4,47
19.03.2024;00:39;4,47
19.03.2024;00:24;4,47
19.03.2024;00:09;4,47
18.03.2024;23:54;4,46
18.03.2024;23:39;4,46
18.03.2024;23:24;4,47
18.03.2024;23:09;4,47
18.03.2024;22:54;4,47
18.03.2024;22:39;4,46
18.03.2024;22:24;4,47
18.03.2024;22:09;4,47
18.03.2024;21:54;4,46
18.03.2024;21:39;4,47
18.03.2024;21:24;4,47
18.03.2024;21:09;4,47
18.03.2024;20:54;4,47
18.03.2024;20:39;4,47
18.03.2024;20:24;4,47
18.03.2024;20:09;4,47
18.03.2024;19:54;4,47
18.03.2024;19:39;4,47
18.03.2024;19:24;4,47
18.03.2024;19:09;4,47
18.03.2024;18:54;4,47
18.03.2024;18:39;4,47
18.03.2024;18:24;4,47
18.03.2024;18:09;4,47
18.03.2024;17:54;4,47
18.03.2024;17:39;4,47
18.03.2024;17:24;4,47
18.03.2024;17:09;4,46
18.03.2024;16:54;4,47
18.03.2024;16:39;4,47
18.03.2024;16:24;4,47
18.03.2024;16:09;4,47
18.03.2024;15:54;4,47